Weather in Salon-de-Provence

France     43°38′37″N   5°05′42″E
temp.,
°C
wind,
m/s
gust,
m/s
humid.,
%
clouds,
%
prec.,
mm/h
press.,
hPa
HPBL,
m
15 june, tue
tue1523:00+21nw00690 0.0 101513
02:00+21n35645 0.0 1015119
05:00+19n256825 0.0 1015138
08:00+22nne12555 0.0 1017205
11:00+30nne113725 0.0 1017952
14:00+33w23280 0.0 10162235
17:00+34ssw34270 0.0 10142595
20:00+27s55510 0.0 1015486
16 june, wed
wed1623:00+22sse22745 0.0 101635
02:00+21e22755 0.0 101621
05:00+19e11765 0.0 101515
08:00+23e22604 0.0 1015203
11:00+30s33400 0.0 10141172
14:00+32s64370 0.0 10131542
17:00+30s66381 0.0 10131095
20:00+26sse57495 0.0 1013651
17 june, thu
thu1723:00+21se23724 0.0 101449
02:00+20ese117765 0.0 101413
05:00+21ne227599 0.0 101442
08:00+23e236770 0.0 1014255
11:00+30ese463783 0.0 10131481
14:00+34s6824100 0.0 10112630
17:00+28s81244100 0.0 1012776
20:00+26ese51048100 0.1 1012588
18 june, fri
fri1823:00+23ese395682 0.1 1013276
02:00+21se22683 0.1 101328
05:00+20e23711 0.0 101354
08:00+23ese246396 0.0 1014327
11:00+29sse4645100 0.0 10141594
14:00+30s7845100 0.0 10141503
17:00+29s664999 0.0 10141113
20:00+26s566312 0.0 1015805
19 june, sat
sat1923:00+20e1189100 0.0 101615
02:00+20ese2290100 0.0 101627
05:00+20e2378100 0.0 101574
08:00+23ese366298 0.0 1014263
11:00+30se674067 0.0 10131143
14:00+34se5727100 0.0 10101597
17:00+33s7930100 0.0 10101305
20:00+29se2643100 0.0 1011218